STARLINK-1698

decayed
NORAD ID: 46547 Int'l Des: 2020-070 Owner: SPXS Country: US Constellation: starlink
LEOCIRCULAR
グループ

STARLINK-1698について

説明を読み込み中...

高度履歴

Altitude vs Time

uPlot chart will show altitude changes over time

軌道要素

1 46547U 20070R 24251.36653243 .32321068 12252-4 42057-2 0 9992
2 46547 53.0216 52.7432 0009027 282.3023 161.1499 16.34787944217796
Epoch: Sep 7, 2024 • Age: 8966 hours

現在のステータス

Position data unavailable
打ち上げ日 Oct 6, 2020
運用期間 4.9 years
落下予定日 Sep 7, 2024
タイプ internet

技術仕様

分類 Payload
質量 260.00 kg
乾燥質量 248.00 kg
総質量 260.00 kg
長さ 0.20 m
直径 2.80 m
スパン 9.00 m
形状 Box + pan
製造者 SPXS
バスタイプ Starlink
フェーズステータス Unknown Transfer Status
所有者/国 SPXS/US

大規模コンステレーション

Loading constellations...